TimeEDT,TemperatureF,Dew PointF,Humidity,Sea Level PressureIn,VisibilityMPH,Wind Direction,Wind SpeedMPH,Gust SpeedMPH,PrecipitationIn,Events,Conditions,WindDirDegrees,DateUTC
12:15 AM,78.8,73.4,83,30.05,10.0,SW,5.8,-,N/A,,Partly Cloudy,220,2013-07-29 04:15:00
12:35 AM,78.8,73.4,83,30.04,10.0,SSW,6.9,-,N/A,,Clear,200,2013-07-29 04:35:00
12:55 AM,78.8,73.4,83,30.04,10.0,SSW,6.9,-,N/A,,Clear,200,2013-07-29 04:55:00
1:15 AM,78.8,73.4,83,30.03,10.0,South,9.2,-,N/A,,Clear,190,2013-07-29 05:15:00
1:35 AM,78.8,73.4,83,30.04,10.0,SSW,8.1,-,N/A,,Partly Cloudy,200,2013-07-29 05:35:00
1:55 AM,78.8,73.4,83,30.03,10.0,SSW,8.1,-,N/A,,Partly Cloudy,210,2013-07-29 05:55:00
2:15 AM,78.8,73.4,83,30.03,10.0,SW,8.1,-,N/A,,Clear,230,2013-07-29 06:15:00
2:35 AM,78.8,73.4,83,30.03,10.0,WSW,4.6,-,N/A,,Clear,250,2013-07-29 06:35:00
2:55 AM,77.0,73.4,89,30.03,10.0,WSW,3.5,-,N/A,,Clear,250,2013-07-29 06:55:00
3:15 AM,75.2,71.6,89,30.03,8.0,West,3.5,-,N/A,,Clear,280,2013-07-29 07:15:00
3:35 AM,75.2,71.6,89,30.03,8.0,WSW,3.5,-,N/A,,Clear,240,2013-07-29 07:35:00
3:55 AM,75.2,71.6,89,30.03,8.0,WSW,3.5,-,N/A,,Clear,250,2013-07-29 07:55:00
4:15 AM,75.2,73.4,94,30.03,7.0,West,3.5,-,N/A,,Clear,270,2013-07-29 08:15:00
4:35 AM,75.2,71.6,89,30.02,6.0,WSW,4.6,-,N/A,,Clear,250,2013-07-29 08:35:00
4:55 AM,75.2,73.4,94,30.03,5.0,West,3.5,-,N/A,,Clear,260,2013-07-29 08:55:00
5:15 AM,75.2,73.4,94,30.03,5.0,West,5.8,-,N/A,,Clear,270,2013-07-29 09:15:00
5:35 AM,75.2,73.4,94,30.04,6.0,West,5.8,-,N/A,,Clear,260,2013-07-29 09:35:00
6:45 AM,75.2,73.4,94,30.06,5.0,West,5.8,-,N/A,,Clear,260,2013-07-29 10:45:00
7:45 AM,78.8,73.4,83,30.06,6.0,WSW,5.8,-,N/A,,Clear,250,2013-07-29 11:45:00
8:45 AM,82.4,73.4,74,30.08,8.0,West,4.6,-,N/A,,Clear,260,2013-07-29 12:45:00
9:45 AM,84.2,73.4,70,30.09,10.0,West,9.2,-,N/A,,Clear,270,2013-07-29 13:45:00
10:45 AM,87.8,71.6,58,30.10,10.0,WSW,9.2,-,N/A,,Partly Cloudy,240,2013-07-29 14:45:00
11:45 AM,86.0,75.2,70,30.10,6.0,South,11.5,-,N/A,,Haze,180,2013-07-29 15:45:00
12:45 PM,84.2,77.0,79,30.08,6.0,South,11.5,-,N/A,,Haze,180,2013-07-29 16:45:00
1:50 PM,84.2,77.0,79,30.07,6.0,South,11.5,17.3,N/A,Thunderstorm,Haze,190,2013-07-29 17:50:00
2:50 PM,89.6,73.4,59,30.06,6.0,SW,15.0,-,N/A,,Haze,230,2013-07-29 18:50:00
3:50 PM,86.0,77.0,74,30.06,6.0,South,17.3,-,N/A,,Haze,180,2013-07-29 19:50:00
4:28 PM,82.4,77.0,84,30.08,7.0,East,17.3,23.0,N/A,Rain-Thunderstorm,Thunderstorms and Rain,90,2013-07-29 20:28:00
4:35 PM,82.4,77.0,84,30.08,2.0,East,17.3,23.0,N/A,Rain-Thunderstorm,Thunderstorms and Rain,100,2013-07-29 20:35:00
5:15 PM,73.4,69.8,88,30.13,3.0,South,13.8,-,N/A,Rain-Thunderstorm,Thunderstorms and Rain,170,2013-07-29 21:15:00
6:50 PM,71.6,69.8,94,30.14,3.0,Variable,5.8,-,N/A,Rain-Thunderstorm,Light Thunderstorms and Rain,0,2013-07-29 22:50:00
7:45 PM,73.4,71.6,94,30.14,10.0,SE,5.8,-,N/A,,Mostly Cloudy,130,2013-07-29 23:45:00
9:55 PM,75.2,71.6,89,30.14,10.0,SW,5.8,-,N/A,,Clear,230,2013-07-30 01:55:00
11:15 PM,73.4,71.6,94,30.15,10.0,Calm,Calm,-,N/A,,Clear,0,2013-07-30 03:15:00
11:35 PM,73.4,71.6,94,30.15,10.0,Calm,Calm,-,N/A,,Partly Cloudy,0,2013-07-30 03:35:00
11:55 PM,73.4,71.6,94,30.15,10.0,Calm,Calm,-,N/A,,Scattered Clouds,0,2013-07-30 03:55:00